This is the latest recevied weather packets stored in our database for station/object KD0SBN-3. If no packets are shown the sender has not sent any weather packets the latest 10 day(s).
| Time | Temp. | Humidity | Pressure | Rain* | Wind** | Luminosity | Snow |
|---|---|---|---|---|---|---|---|
| 1777575553 | 0° C | 95% | 1024.5 hPa | 1.78 mm | - | 144 W/m² | - |
| 1777575249 | 0° C | 95% | 1024.5 hPa | 0 mm | - | 190 W/m² | - |
| 1777574945 | 0.56° C | 95% | 1024.7 hPa | 0 mm | - | 229 W/m² | - |
| 1777574641 | 0° C | 96% | 1024.7 hPa | 0 mm | - | 272 W/m² | - |
| 1777574338 | 0° C | 96% | 1024.7 hPa | 0 mm | - | 196 W/m² | - |
| 1777574038 | -0.56° C | 96% | 1025.1 hPa | 0 mm | - | 112 W/m² | - |
| 1777573733 | -0.56° C | 95% | 1024.7 hPa | 0 mm | - | 91 W/m² | - |
| 1777573429 | -0.56° C | 95% | 1025.1 hPa | 0 mm | - | 47 W/m² | - |
| 1777573125 | -0.56° C | 95% | 1025 hPa | 0 mm | - | 57 W/m² | - |
| 1777572822 | -0.56° C | 95% | 1025 hPa | 0 mm | - | 68 W/m² | - |
| 1777572518 | -0.56° C | 95% | 1025.4 hPa | 0 mm | - | 75 W/m² | - |
| 1777572213 | -0.56° C | 95% | 1025.1 hPa | 0 mm | - | 109 W/m² | - |
| 1777571909 | -0.56° C | 95% | 1025.1 hPa | 0 mm | - | 121 W/m² | - |
| 1777571604 | -0.56° C | 95% | 1025.3 hPa | 0 mm | - | 110 W/m² | - |
| 1777571302 | -0.56° C | 95% | 1025.1 hPa | 0 mm | - | 128 W/m² | - |
| 1777570998 | -0.56° C | 95% | 1025.3 hPa | 0 mm | - | 87 W/m² | - |
| 1777570694 | -0.56° C | 94% | 1025.4 hPa | 0 mm | - | 78 W/m² | - |
| 1777570390 | -0.56° C | 94% | 1025.1 hPa | 0 mm | - | 102 W/m² | - |
| 1777570086 | -0.56° C | 94% | 1025.3 hPa | 0 mm | - | 98 W/m² | - |
| 1777569782 | -0.56° C | 94% | 1025.3 hPa | 0 mm | - | 83 W/m² | - |
| 1777569478 | -0.56° C | 93% | 1025.1 hPa | 0 mm | - | 57 W/m² | - |
| 1777569175 | -0.56° C | 93% | 1025.1 hPa | 0 mm | - | 67 W/m² | - |
| 1777568871 | 0° C | 92% | 1025 hPa | 0 mm | - | 56 W/m² | - |
| 1777568569 | 0° C | 91% | 1025 hPa | 0 mm | - | 57 W/m² | - |
| 1777568265 | 0° C | 91% | 1025.1 hPa | 0 mm | - | 62 W/m² | - |
* Rain latest hour (hover to see other rain measurements)
** Current wind speed in m/s (hover to see current wind gust speed)